Back to catalog

STARLINK-31833

AliveCommunicationsVLEO
NORAD 59733·PAYLOAD·🇺🇸 United States

Launched May 13, 2024 from Cape Canaveral Space Force Station

Loading…

Next Passes (next 24 hours)

TLE

FreshSource: CelesTrak SupGP

Epoch: Sep 14, 2026, 21:07 UTC

1 59733C 24090D   26257.88034722  .00011541  00000+0  41786-3 0  2575
2 59733  43.0028 195.2124 0001519 252.6042  64.2021 15.27585241    13

Track STARLINK-31833 in real time with AllMySat

Download on the App Store